| time (UTC) | temp F | wind direction | speed MPH | gust MPH | rain 1hr in | rain 24hr in | rain mn in | humidity % | barometer mb |
| 20260901190305 | 51 | 251 | 1.0 | 3.0 | 0.00 | 0.06 | 0.00 | 4 | 1022.4 |
| 20260901184804 | 51 | 266 | 1.0 | 2.0 | 0.00 | 0.06 | 0.00 | 4 | 1022.3 |
| 20260901184305 | 50 | 257 | 1.0 | 2.0 | 0.00 | 0.06 | 0.00 | 4 | 1022.2 |
| 20260901183804 | 50 | 260 | 1.0 | 2.0 | 0.00 | 0.06 | 0.00 | 4 | 1022.2 |
| 20260901182805 | 50 | 249 | 1.0 | 2.0 | 0.00 | 0.07 | 0.00 | 4 | 1022.1 |
| 20260901181306 | 50 | 246 | 2.0 | 3.0 | 0.00 | 0.07 | 0.00 | 4 | 1022.1 |
| 20260901175805 | 50 | 237 | 2.0 | 2.0 | 0.00 | 0.07 | 0.00 | 4 | 1022.0 |
| 20260901174805 | 50 | 236 | 1.0 | 1.0 | 0.00 | 0.07 | 0.00 | 4 | 1021.9 |
| 20260901174305 | 50 | 234 | 1.0 | 3.0 | 0.00 | 0.07 | 0.00 | 4 | 1021.9 |
| 20260901173805 | 49 | 230 | 1.0 | 2.0 | 0.00 | 0.07 | 0.00 | 4 | 1021.9 |
| 20260901172804 | 49 | 256 | 1.0 | 3.0 | 0.00 | 0.07 | 0.00 | 4 | 1021.8 |
| 20260901172305 | 49 | 273 | 0.0 | 1.0 | 0.00 | 0.07 | 0.00 | 4 | 1021.8 |
| 20260901170805 | 49 | 270 | 1.0 | 3.0 | 0.00 | 0.07 | 0.00 | 4 | 1021.8 |
| 20260901170305 | 49 | 261 | 0.0 | 1.0 | 0.00 | 0.07 | 0.00 | 4 | 1021.7 |
| 20260901165805 | 49 | 243 | 0.0 | 1.0 | 0.00 | 0.07 | 0.00 | 4 | 1021.8 |
| 20260901165307 | 49 | 243 | 0.0 | 1.0 | 0.00 | 0.07 | 0.00 | 6 | 1021.8 |
| 20260901160304 | 51 | 242 | 2.0 | 3.0 | 0.00 | 0.09 | 0.00 | 16 | 1021.5 |
| 20260901152804 | 52 | 234 | 0.0 | 2.0 | 0.00 | 0.09 | 0.00 | 27 | 1021.4 |
| 20260901152305 | 52 | 236 | 0.0 | 1.0 | 0.00 | 0.09 | 0.00 | 28 | 1021.6 |
| 20260901151804 | 53 | 236 | 2.0 | 3.0 | 0.00 | 0.09 | 0.00 | 27 | 1021.7 |
| 20260901150304 | 53 | 209 | 3.0 | 7.0 | 0.00 | 0.09 | 0.00 | 22 | 1021.7 |
| 20260901143803 | 53 | 225 | 2.0 | 8.0 | 0.00 | 0.09 | 0.00 | 23 | 1022.1 |
| 20260901143303 | 53 | 250 | 2.0 | 3.0 | 0.00 | 0.09 | 0.00 | 22 | 1022.2 |
| 20260901142803 | 54 | 230 | 1.0 | 6.0 | 0.00 | 0.09 | 0.00 | 22 | 1022.2 |
| 20260901142305 | 54 | 226 | 3.0 | 6.0 | 0.00 | 0.09 | 0.00 | 21 | 1022.2 |
| 20260901135305 | 53 | 238 | 2.0 | 5.0 | 0.00 | 0.09 | 0.00 | 36 | 1022.2 |
| 20260901134804 | 53 | 235 | 2.0 | 8.0 | 0.00 | 0.09 | 0.00 | 37 | 1022.2 |
| 20260901134304 | 53 | 239 | 2.0 | 3.0 | 0.00 | 0.09 | 0.00 | 38 | 1022.2 |
| 20260901133803 | 53 | 235 | 4.0 | 8.0 | 0.00 | 0.09 | 0.00 | 39 | 1022.3 |
| 20260901125308 | 54 | 198 | 5.0 | 12.0 | 0.00 | 0.09 | 0.00 | 52 | 1022.1 |
| 20260901124804 | 54 | 223 | 5.0 | 10.0 | 0.00 | 0.09 | 0.00 | 51 | 1022.0 |
| 20260901123803 | 54 | 208 | 5.0 | 12.0 | 0.00 | 0.09 | 0.00 | 44 | 1021.8 |
| 20260901122306 | 53 | 228 | 3.0 | 14.0 | 0.00 | 0.10 | 0.00 | 31 | 1021.9 |
| 20260901121304 | 54 | 176 | 2.0 | 6.0 | 0.00 | 0.10 | 0.00 | 30 | 1021.9 |
| 20260901120819 | 54 | 206 | 2.0 | 7.0 | 0.00 | 0.10 | 0.00 | 38 | 1021.9 |
| 20260901115804 | 53 | 238 | 2.0 | 6.0 | 0.00 | 0.10 | 0.06 | 42 | 1021.9 |
| 20260901113304 | 53 | 221 | 3.0 | 8.0 | 0.00 | 0.10 | 0.06 | 47 | 1021.7 |
| 20260901112306 | 53 | 233 | 3.0 | 8.0 | 0.00 | 0.10 | 0.06 | 51 | 1021.7 |
| 20260901111803 | 54 | 234 | 3.0 | 6.0 | 0.00 | 0.10 | 0.06 | 51 | 1021.6 |
| 20260901110303 | 53 | 237 | 5.0 | 8.0 | 0.00 | 0.10 | 0.06 | 41 | 1021.7 |
| 20260901104304 | 53 | 235 | 3.0 | 8.0 | 0.00 | 0.10 | 0.06 | 28 | 1021.6 |
| 20260901102306 | 53 | 231 | 3.0 | 9.0 | 0.00 | 0.10 | 0.06 | 14 | 1021.8 |
| 20260901101804 | 53 | 245 | 4.0 | 8.0 | 0.00 | 0.10 | 0.06 | 11 | 1021.9 |
| 20260901101304 | 53 | 230 | 4.0 | 9.0 | 0.00 | 0.10 | 0.06 | 11 | 1021.8 |
| 20260901095306 | 54 | 217 | 5.0 | 9.0 | 0.00 | 0.10 | 0.06 | 27 | 1021.6 |
| 20260901094804 | 55 | 210 | 6.0 | 10.0 | 0.00 | 0.10 | 0.06 | 33 | 1021.6 |
| 20260901092305 | 56 | 245 | 5.0 | 12.0 | 0.00 | 0.10 | 0.06 | 64 | 1021.3 |
| 20260901090303 | 55 | 205 | 2.0 | 7.0 | 0.00 | 0.10 | 0.06 | 59 | 1021.3 |
| 20260901085804 | 55 | 236 | 3.0 | 6.0 | 0.00 | 0.10 | 0.06 | 56 | 1021.2 |
| 20260901084303 | 55 | 216 | 4.0 | 8.0 | 0.00 | 0.10 | 0.06 | 50 | 1021.1 |
| 20260901075307 | 56 | 205 | 5.0 | 12.0 | 0.00 | 0.10 | 0.06 | 63 | 1020.8 |
| 20260901074303 | 56 | 211 | 4.0 | 12.0 | 0.00 | 0.10 | 0.06 | 64 | 1020.7 |
| 20260901072805 | 55 | 347 | 5.0 | 8.0 | 0.00 | 0.10 | 0.06 | 35 | 1018.0 |
| 20260831213305 | 56 | 185 | 4.0 | 18.0 | 0.00 | 0.10 | 0.06 | 29 | 1017.4 |
| 20260831212306 | 56 | 206 | 5.0 | 12.0 | 0.00 | 0.10 | 0.06 | 32 | 1017.1 |
| 20260831211305 | 56 | 222 | 4.0 | 15.0 | 0.00 | 0.10 | 0.06 | 36 | 1017.2 |
| 20260831210805 | 56 | 177 | 4.0 | 12.0 | 0.00 | 0.10 | 0.06 | 35 | 1017.2 |
| 20260831203805 | 54 | 199 | 5.0 | 20.0 | 0.00 | 0.10 | 0.06 | 4 | 1016.8 |
| 20260831202804 | 54 | 235 | 9.0 | 17.0 | 0.00 | 0.10 | 0.06 | 4 | 1016.7 |
| 20260831201805 | 56 | 226 | 5.0 | 13.0 | 0.00 | 0.10 | 0.06 | 4 | 1016.7 |
| 20260831200804 | 56 | 221 | 6.0 | 13.0 | 0.02 | 0.10 | 0.06 | 4 | 1016.5 |
| 20260831200305 | 55 | 232 | 6.0 | 13.0 | 0.02 | 0.11 | 0.06 | 4 | 1016.5 |
| 20260831194807 | 55 | 229 | 5.0 | 13.0 | 0.02 | 0.12 | 0.06 | 4 | 1016.4 |
| 20260831194307 | 55 | 209 | 4.0 | 10.0 | 0.02 | 0.12 | 0.06 | 4 | 1016.4 |
| 20260831192805 | 55 | 241 | 2.0 | 7.0 | 0.02 | 0.12 | 0.06 | 4 | 1016.3 |
| 20260831192306 | 54 | 232 | 2.0 | 7.0 | 0.02 | 0.12 | 0.06 | 4 | 1016.4 |
| 20260831191805 | 54 | 222 | 1.0 | 10.0 | 0.02 | 0.12 | 0.06 | 4 | 1016.4 |